WZZ3DQ EPWR-EDSB

Flight info

Callsign WZZ3DQ
Flight time 1h 6m
Altitude 34000
Route ULGIL T707 TOMTI N869 GUPIN L173 LBU Z729 KRH KRH1L
Aircraft A321/M-SDE1E2E3FGIJ1J4RWXY/LB1

Departure

Time 2026-05-05 20:06
Airport Copernicus Wrocław Airport (EPWR)

Arrival

Time 2026-05-05 21:12
Airport Karlsruhe Baden-Baden Airport (EDSB)
Time Latitude Longitude Altitude Speed Heading
2026-05-05 19:29 51.10888 16.87939 404 ft 0 kts 26°
2026-05-05 19:49 51.10879 16.87932 402 ft 4 kts 26°
2026-05-05 19:50 51.10855 16.87913 400 ft 4 kts 34°
2026-05-05 19:50 51.10836 16.87885 401 ft 4 kts 65°
2026-05-05 19:50 51.10833 16.87850 402 ft 2 kts 115°
2026-05-05 19:50 51.10834 16.87847 402 ft 0 kts 116°
2026-05-05 19:53 51.10833 16.87848 403 ft 1 kts 116°
2026-05-05 19:54 51.10835 16.87858 400 ft 1 kts 73°
2026-05-05 19:54 51.10844 16.87853 399 ft 2 kts 329°
2026-05-05 19:54 51.10857 16.87788 403 ft 11 kts 286°
2026-05-05 19:54 51.10890 16.87661 403 ft 13 kts 296°
2026-05-05 19:55 51.10898 16.87636 401 ft 0 kts 296°
2026-05-05 20:00 51.10899 16.87634 403 ft 1 kts 296°
2026-05-05 20:00 51.10918 16.87571 403 ft 9 kts 296°
2026-05-05 20:00 51.10948 16.87470 401 ft 11 kts 288°
2026-05-05 20:00 51.10903 16.87385 403 ft 12 kts 206°
2026-05-05 20:01 51.10826 16.87326 402 ft 13 kts 206°
2026-05-05 20:01 51.10739 16.87258 403 ft 14 kts 206°
2026-05-05 20:01 51.10659 16.87306 402 ft 15 kts 117°
2026-05-05 20:01 51.10611 16.87462 403 ft 16 kts 116°
2026-05-05 20:02 51.10558 16.87635 400 ft 18 kts 116°
2026-05-05 20:02 51.10501 16.87822 401 ft 19 kts 116°
2026-05-05 20:02 51.10442 16.88014 404 ft 19 kts 116°
2026-05-05 20:02 51.10383 16.88203 406 ft 19 kts 116°
2026-05-05 20:03 51.10321 16.88408 406 ft 22 kts 115°
2026-05-05 20:03 51.10247 16.88651 404 ft 26 kts 116°
2026-05-05 20:03 51.10165 16.88919 403 ft 27 kts 116°
2026-05-05 20:03 51.10082 16.89188 403 ft 27 kts 116°
2026-05-05 20:04 51.09999 16.89457 403 ft 27 kts 116°
2026-05-05 20:04 51.09927 16.89685 404 ft 16 kts 122°
2026-05-05 20:04 51.09907 16.89756 403 ft 2 kts
2026-05-05 20:04 51.09911 16.89740 403 ft 0 kts 297°
2026-05-05 20:05 51.09912 16.89737 403 ft 3 kts 297°
2026-05-05 20:05 51.10030 16.89356 403 ft 77 kts 296°
2026-05-05 20:05 51.10373 16.88245 404 ft 143 kts 297°
2026-05-05 20:05 51.10870 16.86717 890 ft 152 kts 298°
2026-05-05 20:06 51.11343 16.85213 1635 ft 153 kts 304°
2026-05-05 20:06 51.11845 16.83613 1957 ft 173 kts 302°
2026-05-05 20:06 51.12401 16.81810 2288 ft 191 kts 298°
2026-05-05 20:06 51.12591 16.79610 2606 ft 216 kts 259°
2026-05-05 20:07 51.11812 16.77538 3011 ft 227 kts 220°
2026-05-05 20:07 51.10526 16.75960 3415 ft 243 kts 219°
2026-05-05 20:07 51.09230 16.74020 3809 ft 266 kts 228°
2026-05-05 20:07 51.08128 16.71591 4505 ft 274 kts 236°
2026-05-05 20:08 51.07162 16.68961 5369 ft 275 kts 239°
2026-05-05 20:08 51.06253 16.66306 6347 ft 272 kts 239°
2026-05-05 20:08 51.05343 16.63673 7204 ft 272 kts 238°
2026-05-05 20:08 51.04405 16.61049 7998 ft 274 kts 238°
2026-05-05 20:09 51.03433 16.58412 8609 ft 279 kts 237°
2026-05-05 20:09 51.02436 16.55762 8762 ft 279 kts 237°
2026-05-05 20:09 51.01501 16.53071 8791 ft 280 kts 245°
2026-05-05 20:09 51.01019 16.50073 8793 ft 283 kts 262°
2026-05-05 20:10 51.01138 16.46912 9215 ft 292 kts 280°
2026-05-05 20:10 51.01726 16.43814 10040 ft 296 kts 285°
2026-05-05 20:10 51.02358 16.40587 10306 ft 318 kts 284°
2026-05-05 20:10 51.03026 16.37122 10590 ft 336 kts 285°
2026-05-05 20:11 51.03722 16.33531 11209 ft 342 kts 285°
2026-05-05 20:11 51.04429 16.29902 11922 ft 346 kts 285°
2026-05-05 20:11 51.05145 16.26232 12646 ft 349 kts 285°
2026-05-05 20:11 51.05868 16.22530 13354 ft 353 kts 285°
2026-05-05 20:12 51.06351 16.20053 13793 ft 355 kts 285°
2026-05-05 20:12 51.07083 16.16295 14418 ft 358 kts 285°
2026-05-05 20:12 51.07822 16.12499 15062 ft 361 kts 285°
2026-05-05 20:12 51.08567 16.08671 15718 ft 364 kts 285°
2026-05-05 20:13 51.09159 16.04761 16358 ft 365 kts 275°
2026-05-05 20:13 51.09251 16.00734 16981 ft 365 kts 264°
2026-05-05 20:13 51.08828 15.96765 17623 ft 365 kts 252°
2026-05-05 20:13 51.08069 15.92902 18247 ft 367 kts 251°
2026-05-05 20:14 51.07297 15.89019 18811 ft 369 kts 251°
2026-05-05 20:14 51.06522 15.85109 19389 ft 372 kts 251°
2026-05-05 20:14 51.05742 15.81178 19956 ft 374 kts 251°
2026-05-05 20:14 51.04955 15.77226 20546 ft 376 kts 251°
2026-05-05 20:15 51.04161 15.73259 21125 ft 378 kts 251°
2026-05-05 20:15 51.03362 15.69260 21711 ft 381 kts 251°
2026-05-05 20:15 51.02560 15.65240 22267 ft 383 kts 251°
2026-05-05 20:15 51.01753 15.61199 22828 ft 385 kts 251°
2026-05-05 20:16 51.00937 15.57131 23351 ft 388 kts 251°
2026-05-05 20:16 51.00114 15.53040 23775 ft 391 kts 250°
2026-05-05 20:16 50.99280 15.48917 24162 ft 394 kts 250°
2026-05-05 20:16 50.98440 15.44765 24573 ft 396 kts 250°
2026-05-05 20:17 50.97597 15.40596 24986 ft 398 kts 250°
2026-05-05 20:17 50.96744 15.36396 25405 ft 401 kts 250°
2026-05-05 20:17 50.95895 15.32236 25813 ft 403 kts 250°
2026-05-05 20:17 50.95019 15.27951 26229 ft 405 kts 250°
2026-05-05 20:18 50.94163 15.23741 26637 ft 407 kts 250°
2026-05-05 20:18 50.93284 15.19423 27065 ft 408 kts 250°
2026-05-05 20:18 50.92423 15.15186 27476 ft 410 kts 250°
2026-05-05 20:18 50.91544 15.10872 27871 ft 412 kts 250°
2026-05-05 20:19 50.90661 15.06540 28265 ft 414 kts 250°
2026-05-05 20:19 50.89771 15.02187 28644 ft 417 kts 250°
2026-05-05 20:19 50.88874 14.97818 29018 ft 419 kts 250°
2026-05-05 20:19 50.87967 14.93424 29379 ft 421 kts 250°
2026-05-05 20:20 50.87052 14.89005 29725 ft 423 kts 250°
2026-05-05 20:20 50.86131 14.84573 30051 ft 425 kts 249°
2026-05-05 20:20 50.85173 14.80145 30312 ft 428 kts 249°
2026-05-05 20:20 50.84175 14.75696 30597 ft 430 kts 248°
2026-05-05 20:21 50.83155 14.71238 30914 ft 432 kts 248°
2026-05-05 20:21 50.82125 14.66769 31282 ft 433 kts 248°
2026-05-05 20:21 50.81100 14.62306 31722 ft 431 kts 248°
2026-05-05 20:21 50.80084 14.57856 32174 ft 429 kts 248°
2026-05-05 20:22 50.79077 14.53422 32593 ft 428 kts 248°
2026-05-05 20:22 50.78073 14.49003 33031 ft 427 kts 248°
2026-05-05 20:22 50.77069 14.44598 33450 ft 426 kts 248°
2026-05-05 20:22 50.76063 14.40193 33721 ft 426 kts 248°
2026-05-05 20:23 50.75065 14.35837 33778 ft 418 kts 248°
2026-05-05 20:23 50.73103 14.27274 33772 ft 413 kts 248°
2026-05-05 20:24 50.71146 14.18779 33772 ft 412 kts 248°
2026-05-05 20:24 50.69169 14.10269 33773 ft 414 kts 247°
2026-05-05 20:25 50.67186 14.01749 33768 ft 414 kts 247°
2026-05-05 20:25 50.65217 13.93279 33771 ft 415 kts 247°
2026-05-05 20:26 50.63223 13.84763 33776 ft 415 kts 247°
2026-05-05 20:26 50.61211 13.76238 33777 ft 415 kts 247°
2026-05-05 20:27 50.59197 13.67724 33779 ft 415 kts 247°
2026-05-05 20:27 50.57182 13.59227 33779 ft 415 kts 247°
2026-05-05 20:28 50.55160 13.50731 33783 ft 415 kts 246°
2026-05-05 20:28 50.53124 13.42219 33754 ft 417 kts 246°
2026-05-05 20:29 50.51079 13.33686 33757 ft 418 kts 246°
2026-05-05 20:29 50.49019 13.25133 33762 ft 420 kts 246°
2026-05-05 20:30 50.46940 13.16561 33777 ft 420 kts 246°
2026-05-05 20:30 50.44719 13.08076 33796 ft 418 kts 239°
2026-05-05 20:31 50.41272 13.00832 33803 ft 415 kts 225°
2026-05-05 20:31 50.37399 12.94064 33807 ft 417 kts 225°
2026-05-05 20:32 50.33515 12.87294 33814 ft 419 kts 225°
2026-05-05 20:32 50.29620 12.80501 33824 ft 420 kts 225°
2026-05-05 20:33 50.25717 12.73705 33845 ft 420 kts 225°
2026-05-05 20:33 50.21831 12.66960 33841 ft 421 kts 225°
2026-05-05 20:34 50.17911 12.60179 33837 ft 421 kts 225°
2026-05-05 20:34 50.13984 12.53414 33825 ft 421 kts 225°
2026-05-05 20:35 50.10044 12.46648 33814 ft 421 kts 225°
2026-05-05 20:35 50.06434 12.39455 33825 ft 426 kts 238°
2026-05-05 20:36 50.04119 12.30934 33807 ft 428 kts 245°
2026-05-05 20:36 50.01963 12.22301 33806 ft 428 kts 245°
2026-05-05 20:37 49.99787 12.13690 33824 ft 428 kts 245°
2026-05-05 20:37 49.97616 12.05102 33829 ft 426 kts 245°
2026-05-05 20:38 49.95450 11.96544 33823 ft 425 kts 245°
2026-05-05 20:38 49.93288 11.88016 33840 ft 425 kts 245°
2026-05-05 20:39 49.91142 11.79478 33834 ft 425 kts 245°
2026-05-05 20:39 49.88996 11.70924 33828 ft 425 kts 245°
2026-05-05 20:40 49.86871 11.62358 33831 ft 426 kts 246°
2026-05-05 20:40 49.84868 11.53772 33828 ft 427 kts 246°
2026-05-05 20:41 49.82732 11.45210 33842 ft 425 kts 244°
2026-05-05 20:41 49.80464 11.36773 33863 ft 424 kts 244°
2026-05-05 20:42 49.78266 11.28280 33833 ft 426 kts 245°
2026-05-05 20:42 49.75443 11.20341 33829 ft 419 kts 228°
2026-05-05 20:43 49.71472 11.13792 33825 ft 418 kts 223°
2026-05-05 20:43 49.67426 11.07349 33827 ft 418 kts 223°
2026-05-05 20:44 49.63380 11.00887 33836 ft 419 kts 224°
2026-05-05 20:44 49.59324 10.94430 33834 ft 419 kts 223°
2026-05-05 20:45 49.53229 10.84762 33840 ft 420 kts 223°
2026-05-05 20:45 49.49148 10.78322 33865 ft 420 kts 223°
2026-05-05 20:46 49.45065 10.71883 33878 ft 421 kts 223°
2026-05-05 20:46 49.40991 10.65476 33876 ft 422 kts 223°
2026-05-05 20:47 49.36937 10.58964 33871 ft 422 kts 224°
2026-05-05 20:47 49.32895 10.52423 33874 ft 422 kts 223°
2026-05-05 20:48 49.30829 10.49200 33458 ft 427 kts 223°
2026-05-05 20:48 49.28727 10.45992 32916 ft 424 kts 222°
2026-05-05 20:48 49.26639 10.42838 32456 ft 419 kts 223°
2026-05-05 20:48 49.24570 10.39722 31979 ft 415 kts 223°
2026-05-05 20:49 49.22529 10.36636 31490 ft 411 kts 223°
2026-05-05 20:49 49.20517 10.33554 31019 ft 407 kts 224°
2026-05-05 20:49 49.18536 10.30488 30526 ft 404 kts 224°
2026-05-05 20:49 49.16576 10.27442 30042 ft 400 kts 224°
2026-05-05 20:50 49.14639 10.24419 29533 ft 396 kts 225°
2026-05-05 20:50 49.12884 10.21201 29068 ft 392 kts 230°
2026-05-05 20:50 49.11199 10.17970 28617 ft 387 kts 230°
2026-05-05 20:50 49.09525 10.14786 28170 ft 383 kts 229°
2026-05-05 20:51 49.07863 10.11640 27718 ft 379 kts 229°
2026-05-05 20:51 49.06214 10.08524 27305 ft 375 kts 229°
2026-05-05 20:51 49.04585 10.05447 26879 ft 372 kts 229°
2026-05-05 20:51 49.02963 10.02388 26479 ft 369 kts 229°
2026-05-05 20:52 49.01353 9.99356 26070 ft 367 kts 229°
2026-05-05 20:52 48.99754 9.96349 25662 ft 364 kts 229°
2026-05-05 20:52 48.98166 9.93360 25259 ft 362 kts 229°
2026-05-05 20:52 48.96589 9.90392 24850 ft 359 kts 229°
2026-05-05 20:53 48.95019 9.87444 24441 ft 357 kts 229°
2026-05-05 20:53 48.93456 9.84521 24033 ft 355 kts 229°
2026-05-05 20:53 48.91900 9.81610 23611 ft 353 kts 229°
2026-05-05 20:53 48.90423 9.78703 23153 ft 353 kts 235°
2026-05-05 20:54 48.89333 9.75379 22705 ft 352 kts 248°
2026-05-05 20:54 48.88769 9.71765 22281 ft 352 kts 262°
2026-05-05 20:54 48.88767 9.68052 21840 ft 352 kts 274°
2026-05-05 20:54 48.89055 9.64374 21396 ft 350 kts 274°
2026-05-05 20:55 48.89343 9.60662 20941 ft 348 kts 274°
2026-05-05 20:55 48.89620 9.57022 20492 ft 346 kts 274°
2026-05-05 20:55 48.89889 9.53405 20048 ft 344 kts 274°
2026-05-05 20:55 48.90150 9.49853 19604 ft 342 kts 274°
2026-05-05 20:56 48.90413 9.46268 19159 ft 340 kts 274°
2026-05-05 20:56 48.90671 9.42709 18710 ft 338 kts 274°
2026-05-05 20:56 48.90926 9.39160 18274 ft 336 kts 274°
2026-05-05 20:56 48.91181 9.35636 17806 ft 334 kts 274°
2026-05-05 20:57 48.91455 9.32147 17372 ft 331 kts 275°
2026-05-05 20:57 48.91797 9.28705 16958 ft 328 kts 277°
2026-05-05 20:57 48.92176 9.25313 16539 ft 324 kts 277°
2026-05-05 20:57 48.92563 9.21947 16137 ft 321 kts 277°
2026-05-05 20:58 48.92941 9.18615 15722 ft 319 kts 277°
2026-05-05 20:58 48.93312 9.15304 15310 ft 316 kts 277°
2026-05-05 20:58 48.93673 9.12023 14905 ft 313 kts 277°
2026-05-05 20:58 48.94025 9.08769 14502 ft 311 kts 277°
2026-05-05 20:59 48.94367 9.05542 14103 ft 308 kts 276°
2026-05-05 20:59 48.94705 9.02331 13705 ft 306 kts 276°
2026-05-05 20:59 48.95038 8.99147 13280 ft 303 kts 276°
2026-05-05 20:59 48.95369 8.95994 12918 ft 299 kts 276°
2026-05-05 21:00 48.95694 8.92914 12638 ft 292 kts 276°
2026-05-05 21:00 48.96016 8.89878 12273 ft 289 kts 276°
2026-05-05 21:00 48.96335 8.86876 11908 ft 286 kts 276°
2026-05-05 21:00 48.96651 8.83898 11541 ft 284 kts 276°
2026-05-05 21:01 48.96964 8.80933 11178 ft 283 kts 276°
2026-05-05 21:01 48.97273 8.77990 10807 ft 281 kts 276°
2026-05-05 21:01 48.97580 8.75055 10441 ft 280 kts 276°
2026-05-05 21:01 48.97781 8.73118 10201 ft 279 kts 276°
2026-05-05 21:02 48.98178 8.69278 10027 ft 274 kts 276°
2026-05-05 21:02 48.98374 8.67378 9951 ft 274 kts 276°
2026-05-05 21:02 48.98675 8.64478 9393 ft 277 kts 276°
2026-05-05 21:02 48.98973 8.61617 8837 ft 270 kts 276°
2026-05-05 21:03 48.99264 8.58815 8302 ft 267 kts 276°
2026-05-05 21:03 48.99550 8.56061 7851 ft 256 kts 276°
2026-05-05 21:03 48.99821 8.53512 7649 ft 235 kts 276°
2026-05-05 21:03 49.00076 8.51098 7142 ft 229 kts 276°
2026-05-05 21:04 49.00324 8.48724 6685 ft 226 kts 276°
2026-05-05 21:04 49.00571 8.46362 6278 ft 225 kts 276°
2026-05-05 21:04 49.00816 8.44000 5874 ft 228 kts 276°
2026-05-05 21:04 49.01062 8.41614 5608 ft 224 kts 276°
2026-05-05 21:05 49.01302 8.39313 5405 ft 218 kts 276°
2026-05-05 21:05 49.01535 8.37083 5256 ft 207 kts 276°
2026-05-05 21:05 49.01757 8.34970 5131 ft 199 kts 276°
2026-05-05 21:05 49.01884 8.32889 5046 ft 196 kts 263°
2026-05-05 21:06 49.01500 8.30955 4974 ft 195 kts 241°
2026-05-05 21:06 49.00599 8.29422 4897 ft 198 kts 218°
2026-05-05 21:06 48.99433 8.28304 4813 ft 197 kts 215°
2026-05-05 21:06 48.98267 8.27207 4740 ft 197 kts 215°
2026-05-05 21:07 48.97104 8.26109 4583 ft 195 kts 215°
2026-05-05 21:07 48.95979 8.25046 4369 ft 185 kts 215°
2026-05-05 21:07 48.94919 8.24045 4125 ft 175 kts 215°
2026-05-05 21:07 48.93889 8.23070 3883 ft 174 kts 215°
2026-05-05 21:08 48.92861 8.22098 3651 ft 173 kts 214°
2026-05-05 21:08 48.91839 8.21133 3422 ft 173 kts 214°
2026-05-05 21:08 48.90821 8.20172 3194 ft 172 kts 214°
2026-05-05 21:08 48.89805 8.19214 2964 ft 172 kts 213°
2026-05-05 21:09 48.88786 8.18253 2733 ft 171 kts 214°
2026-05-05 21:09 48.87805 8.17330 2509 ft 161 kts 213°
2026-05-05 21:09 48.86875 8.16454 2296 ft 155 kts 213°
2026-05-05 21:09 48.85973 8.15605 2091 ft 149 kts 213°
2026-05-05 21:10 48.85119 8.14801 1916 ft 140 kts 213°
2026-05-05 21:10 48.84300 8.14030 1717 ft 137 kts 212°
2026-05-05 21:10 48.83494 8.13272 1522 ft 136 kts 212°
2026-05-05 21:10 48.82692 8.12518 1334 ft 135 kts 211°
2026-05-05 21:11 48.81894 8.11770 1155 ft 135 kts 211°
2026-05-05 21:11 48.81082 8.11028 966 ft 136 kts 211°
2026-05-05 21:11 48.80278 8.10249 798 ft 138 kts 213°
2026-05-05 21:11 48.79468 8.09489 618 ft 136 kts 211°
2026-05-05 21:12 48.78663 8.08738 421 ft 135 kts 211°
2026-05-05 21:12 48.77987 8.08101 414 ft 91 kts 212°
2026-05-05 21:12 48.77596 8.07736 412 ft 41 kts 212°
2026-05-05 21:12 48.77428 8.07576 412 ft 14 kts 212°
2026-05-05 21:13 48.77344 8.07600 413 ft 14 kts 126°
2026-05-05 21:13 48.77305 8.07736 412 ft 12 kts 74°
2026-05-05 21:13 48.77373 8.07820 413 ft 14 kts 32°
2026-05-05 21:13 48.77459 8.07901 412 ft 16 kts 31°
2026-05-05 21:14 48.77557 8.07991 412 ft 17 kts 31°
2026-05-05 21:14 48.77666 8.08091 412 ft 19 kts 31°
2026-05-05 21:14 48.77769 8.08188 411 ft 12 kts 32°
2026-05-05 21:14 48.77773 8.08295 412 ft 12 kts 119°
2026-05-05 21:15 48.77752 8.08419 412 ft 13 kts 60°
2026-05-05 21:15 48.77831 8.08506 413 ft 15 kts 32°
2026-05-05 21:15 48.77922 8.08592 413 ft 14 kts 34°
2026-05-05 21:15 48.77985 8.08663 411 ft 8 kts 59°
2026-05-05 21:16 48.77982 8.08708 413 ft 1 kts 109°
2026-05-05 21:16 48.77975 8.08722 413 ft 2 kts 138°
2026-05-05 21:16 48.77972 8.08724 410 ft 0 kts 155°